Home > Weather > Cap-Haïtien > Past weeks

Flag for Haiti Past Weather in Cap-Haïtien, Haiti — Yesterday and Last 2 Weeks

Now
73 °F

Passing clouds.


Feels Like: 68 °F
Forecast: 79 / 90 °F
Wind: No wind

Location: Santiago

Current Time: Aug 30, 2016 at 2:35:38 AM

Latest Report: Aug 30, 2016 at 2:00 AM


Visibility: N/A

Pressure: 29.95 "Hg

Humidity: 100%

Dew Point: 73 °F

Location of Cap-HaïtienLocation

Past Weather in Cap-Haïtien — Graph

°F

Cap-Haïtien Temperature Yesterday

Maximum temperature yesterday: 90 °F (at 1:00 PM)
Minimum temperature yesterday: 72 °F (at 12:00 AM)
Average temperature yesterday: 77 °F

High & Low Weather Summary for the Past Weeks

 TemperatureHumidityPressure
High95 °F (Aug 18, 3:00 PM)100% (Aug 15, 1:00 AM)30.07 "Hg (Aug 15, 1:00 AM)
Low72 °F (Aug 16, 1:00 AM)36% (Aug 21, 1:00 PM)29.80 "Hg (Aug 25, 3:00 AM)
Average80 °F82%29.97 "Hg
* Reported Aug 15 1:00 AM — Aug 30 1:00 AM, Cap-Haïtien, Weather by CustomWeather, © 2016

Note: Actual official high and low records may vary slightly from our data, if they occured in-between our weather recording intervals... More about our weather records

Advertising

Cap-Haïtien Weather History for the Previous 24 Hours

Scroll right to see more
 ConditionsComfort  
Time TempWeatherWind HumidityBarometerVisibility
1:00 AM
Tue, Aug 30
72 °FPartly cloudy.No wind100%29.95 "HgN/A
12:00 AM72 °FPassing clouds.No wind100%29.98 "HgN/A
11:00 PM
Mon, Aug 29
72 °FPartly cloudy.6 mph100%30.01 "HgN/A
10:00 PM73 °FPartly cloudy.6 mph94%30.01 "HgN/A
9:00 PM75 °FPartly cloudy.6 mph89%30.01 "HgN/A
8:00 PM75 °FPartly cloudy.6 mph89%29.98 "HgN/A
7:00 PM75 °FPassing clouds.No wind89%29.95 "HgN/A
6:00 PM77 °FThundershowers. Passing clouds.7 mph83%29.98 "Hg4 mi
5:00 PM77 °FThundershowers. Partly sunny.5 mph89%29.98 "Hg4 mi
4:00 PM75 °FMild.5 mph89%29.92 "HgN/A
3:00 PM77 °FThundershowers. Partly sunny.12 mph74%29.95 "Hg4 mi
2:00 PM90 °FPartly sunny.10 mph63%29.92 "HgN/A
1:00 PM90 °FPartly sunny.12 mph63%29.92 "HgN/A
12:00 PM88 °FPartly sunny.12 mph66%29.95 "HgN/A
11:00 AM86 °FPartly sunny.14 mph75%29.98 "HgN/A
10:00 AM82 °FPartly sunny.10 mph79%29.98 "HgN/A
9:00 AM79 °FOvercast.9 mph89%29.98 "HgN/A
8:00 AM75 °FFog.5 mph100%29.98 "Hg2 mi
7:32 AM73 °FFog.No wind100%29.95 "Hg2 mi
7:00 AM73 °FFog.No wind100%29.95 "Hg2 mi
6:00 AM72 °FPartly sunny.3 mph100%29.95 "HgN/A
5:00 AM72 °FPassing clouds.5 mph100%29.92 "HgN/A
4:00 AM72 °FFog.5 mph100%29.92 "Hg2 mi
2:00 AM72 °FPassing clouds.5 mph100%29.95 "HgN/A
Weather by CustomWeather, © 2016

See weather overviewHow to use our weather pages